sat.trackr.live / text

‹ back to catalog

STARLINK-34975

NORAD 65224 · 2025-176AC

PAYLOAD ACTIVE UNKNOWN

§ Identity

Operator
Country
US
Launch date
2025-08-14
Launch site
AFETR
Launch vehicle
Mass (kg)
RCS (m²)

Purposes: comms

External: N2YO · Heavens-Above · Gunter

§ Orbital elements

Epoch: 2026-09-19T10:54:08.825184Z

Period
93.85 min
Inclination
53.1613°
Eccentricity
0.0001290
Mean motion
15.34402295 rev/d
Perigee alt
461.8 km
Apogee alt
463.6 km
Semi-major
6,840.8 km
B*
5.1134e-4
RAAN
328.6684°
Arg perigee
84.7139°
Mean anomaly
275.4011°
Rev number
6,284

§ Raw data

STARLINK-349751 65224U 25176AC  26262.45426881  .00016941  00000+0  51134-3 0  99932 65224  53.1613 328.6684 0001290  84.7139 275.4011 15.34402295 62846

JSON: /api/v1/satellites/65224 · /tle

For live sub-satellite position, see the globe view (requires WebGL).

§ Visibility from observer

Set your observer location to see the next 7 days of passes ≥ 10°. The values pass through the URL so the page stays shareable.

No JS? Fill the form by hand. The geolocation button needs JavaScript.